User: anonymous   Login
Location: Caltech
(34.1382°N, 118.1253°W)
Time: 10:25:41
(UTC-08:00)
Language:

SO-50 - Orbit

View from above orbital plane
View from above orbital plane
View from above satellite
View from above satellite

Ground track
Ground track

The orbit data is extracted from the following two-line orbital elements,

1 27607U 02058C   14356.22685424  .00003358  00000-0  50757-3 0  6105
2 27607 064.5571 018.9472 0069348 324.0636 035.5811 14.74272508645195
Epoch (UTC): 22 December 2014 05:26:40
Eccentricity: 0.0069348
inclination: 64.5571°
perigee height: 599 km
apogee height: 696 km
right ascension of ascending node: 18.9472°
argument of perigee: 324.0636°
revolutions per day: 14.74272508
mean anomaly at epoch: 35.5811°
orbit number at epoch: 64519

The dashed part of the orbit path shows where the satellite is in the earth's shadow,  

DLR